Location: B?lite?ti
(46.2833°N, 22.7333°E)
Time: 15:31:12
(UTC+00:00)

MOS 1 Rocket - Pass Details

Date: 24 January 2021
Orbit: 614 x 830 km, 97.4° (Epoch: 01 March)

Event Time Altitude Azimuth Distance (km) Brightness Sun altitude
Rises 17:00:20 0° 10° (N) 2,912 6.3 -16.9°
Reaches altitude 10° 17:02:32 10° 9° (N) 1,991 5.5 -17.2°
Maximum altitude 17:06:49 74° 285° (WNW) 645 3.2 -18.0°
Drops below altitude 10° 17:11:05 10° 201° (SSW) 1,983 6.0 -18.7°
Sets 17:13:17 0° 199° (SSW) 2,898 6.9 -19.1°
